Find SURCAL 5

NORAD ID: 1577 Int'l Des: 1965-065 Owner: NRL Country: US operational
LEOCIRCULARRETROGRADE

Aktuelle Ansicht

3D-Globus wird geladen...

About SURCAL 5

SURCAL 5 (NORAD 1577) is a satellite by NRL of US. It operates in LEO, CIRCULAR, RETROGRADE orbit

Nächste Überflüge

Passes for default location (London). Set your location on the main map for personalized predictions.

Höhenverlauf

Loading altitude history...

Zweizeiliger Elementsatz

1 1577U 65065J 26195.05716272 .00000066 00000-0 10961-3 0 9997
2 1577 90.0288 212.1811 0070949 29.5289 24.4718 13.36259084966243
Epoch: 14. Juli 2026 • Age: 10 hours

Aktueller Status

Höhe 1177.6 km
Apogäum / Perigäum N/A
Geschwindigkeit 7.25 km/s
Subsatellitenpunkt -89.41°S, 74.47°W
Typ other

Most Searched